| time (UTC) | temp C | wind direction | speed KPH | gust KPH | rain 1hr cm | rain 24hr cm | rain mn cm | humidity % | barometer mb |
| 20260905143046 | 30 | 186 | 0.0 | 8.0 | 0.00 | 0.18 | 0.05 | 64 | 1009.1 |
| 20260905141542 | 29 | 288 | 0.0 | 1.6 | 0.00 | 0.18 | 0.05 | 68 | 1008.7 |
| 20260905140039 | 28 | 287 | 0.0 | 6.4 | 0.00 | 0.20 | 0.05 | 70 | 1008.5 |
| 20260905134538 | 27 | 306 | 0.0 | 6.4 | 0.00 | 0.20 | 0.05 | 74 | 1008.5 |
| 20260905133035 | 26 | 306 | 0.0 | 0.0 | 0.00 | 0.20 | 0.05 | 77 | 1008.2 |
| 20260905131534 | 25 | 292 | 0.0 | 9.7 | 0.00 | 0.20 | 0.05 | 78 | 1008.2 |
| 20260905130003 | 25 | 294 | 0.0 | 0.0 | 0.00 | 0.20 | 0.05 | 80 | 1008.1 |
| 20260905124503 | -17 | 0.0 | 0.0 | 0.00 | 0.20 | 0.05 | 1008.2 | ||
| 20260905123056 | -17 | 0.0 | 0.0 | 0.00 | 0.20 | 0.05 | 1008.1 | ||
| 20260905121553 | -17 | 0.0 | 0.0 | 0.00 | 0.20 | 0.05 | 1008.0 | ||
| 20260905120148 | 24 | 301 | 0.0 | 8.0 | 0.00 | 0.23 | 0.05 | 81 | 1008.1 |
| 20260905114605 | 24 | 307 | 0.0 | 0.0 | 0.00 | 0.23 | 0.05 | 80 | 1008.0 |
| 20260905113045 | 24 | 324 | 0.0 | 0.0 | 0.00 | 0.23 | 0.05 | 80 | 1007.9 |
| 20260905111546 | 24 | 317 | 0.0 | 11.3 | 0.00 | 0.23 | 0.05 | 81 | 1007.6 |
| 20260905110044 | 24 | 272 | 0.0 | 0.0 | 0.00 | 0.23 | 0.05 | 82 | 1007.5 |
| 20260905104547 | 24 | 272 | 0.0 | 0.0 | 0.00 | 0.23 | 0.05 | 82 | 1007.4 |
| 20260905103045 | 24 | 273 | 0.0 | 0.0 | 0.00 | 0.23 | 0.05 | 82 | 1007.4 |
| 20260905101541 | 24 | 272 | 0.0 | 0.0 | 0.00 | 0.23 | 0.05 | 82 | 1007.3 |
| 20260905100038 | 25 | 272 | 0.0 | 0.0 | 0.00 | 0.25 | 0.05 | 82 | 1007.2 |
| 20260905094557 | 25 | 272 | 0.0 | 0.0 | 0.03 | 0.25 | 0.05 | 82 | 1007.1 |
| 20260905093042 | 25 | 272 | 0.0 | 0.0 | 0.03 | 0.25 | 0.05 | 82 | 1007.2 |
| 20260905091532 | 25 | 268 | 0.0 | 1.6 | 0.03 | 0.25 | 0.05 | 81 | 1007.3 |
| 20260905090030 | 25 | 268 | 0.0 | 0.0 | 0.03 | 0.30 | 0.05 | 80 | 1007.6 |
| 20260905084535 | 25 | 273 | 0.0 | 0.0 | 0.00 | 0.28 | 0.03 | 80 | 1007.8 |
| 20260905083026 | 25 | 304 | 0.0 | 8.0 | 0.00 | 0.28 | 0.03 | 80 | 1008.0 |
| 20260905081524 | 25 | 312 | 0.0 | 0.0 | 0.00 | 0.28 | 0.03 | 81 | 1008.0 |
| 20260905080034 | 25 | 311 | 0.0 | 0.0 | 0.00 | 0.30 | 0.03 | 81 | 1008.3 |
| 20260905074520 | 25 | 318 | 0.0 | 0.0 | 0.00 | 0.30 | 0.03 | 82 | 1008.6 |
| 20260905073034 | 25 | 318 | 0.0 | 0.0 | 0.00 | 0.30 | 0.03 | 81 | 1009.0 |
| 20260905071516 | 25 | 319 | 0.0 | 0.0 | 0.00 | 0.30 | 0.03 | 80 | 1009.3 |
| 20260905070013 | 25 | 320 | 0.0 | 0.0 | 0.00 | 0.30 | 0.03 | 79 | 1009.4 |
| 20260905064514 | 25 | 319 | 0.0 | 0.0 | 0.00 | 0.30 | 0.03 | 78 | 1009.5 |
| 20260905063012 | 26 | 319 | 0.0 | 0.0 | 0.00 | 0.30 | 0.03 | 77 | 1009.5 |
| 20260905061508 | 25 | 320 | 0.0 | 0.0 | 0.00 | 0.30 | 0.03 | 77 | 1009.7 |
| 20260905060008 | 25 | 309 | 0.0 | 0.0 | 0.00 | 0.30 | 0.03 | 78 | 1009.9 |
| 20260905054506 | 25 | 288 | 0.0 | 0.0 | 0.00 | 0.30 | 0.03 | 77 | 1010.0 |
| 20260905053006 | 26 | 281 | 0.0 | 0.0 | 0.00 | 0.30 | 0.03 | 77 | 1010.2 |
| 20260905051503 | 26 | 308 | 0.0 | 0.0 | 0.00 | 0.30 | 0.03 | 76 | 1010.3 |
| 20260905050005 | 26 | 323 | 0.0 | 1.6 | 0.00 | 0.30 | 0.03 | 76 | 1010.4 |
| 20260905044505 | 26 | 283 | 0.0 | 0.0 | 0.00 | 0.30 | 0.03 | 77 | 1010.6 |
| 20260905043002 | 26 | 290 | 0.0 | 0.0 | 0.03 | 0.30 | 0.03 | 76 | 1010.8 |
| 20260905041556 | 26 | 308 | 0.0 | 0.0 | 0.03 | 0.30 | 0.03 | 77 | 1011.0 |
| 20260905040116 | 26 | 316 | 0.0 | 0.0 | 0.03 | 0.33 | 0.03 | 77 | 1011.0 |
| 20260905034558 | 26 | 306 | 0.0 | 0.0 | 0.03 | 0.33 | 0.03 | 77 | 1011.1 |
| 20260905033054 | 26 | 300 | 0.0 | 0.0 | 0.00 | 0.30 | 0.00 | 76 | 1010.8 |
| 20260905031545 | 26 | 300 | 0.0 | 0.0 | 0.00 | 0.30 | 0.00 | 75 | 1010.5 |
| 20260905030044 | 26 | 300 | 0.0 | 0.0 | 0.00 | 0.36 | 0.00 | 75 | 1010.3 |
| 20260905024539 | 26 | 300 | 0.0 | 0.0 | 0.00 | 0.36 | 0.00 | 74 | 1010.0 |
| 20260905023041 | 27 | 298 | 0.0 | 0.0 | 0.00 | 0.36 | 0.00 | 74 | 1009.9 |
| 20260905021506 | 27 | 321 | 0.0 | 0.0 | 0.00 | 0.36 | 0.00 | 73 | 1009.8 |
| 20260905014554 | 27 | 15 | 0.0 | 0.0 | 0.00 | 0.43 | 0.00 | 71 | 1009.3 |
| 20260905013058 | 27 | 305 | 0.0 | 1.6 | 0.00 | 0.43 | 0.00 | 71 | 1009.0 |
| 20260905011546 | 27 | 300 | 0.0 | 0.0 | 0.00 | 0.43 | 0.00 | 70 | 1008.6 |
| 20260905010049 | 28 | 270 | 0.0 | 0.0 | 0.00 | 0.51 | 0.43 | 69 | 1008.2 |
| 20260905004536 | 28 | 311 | 0.0 | 16.1 | 0.00 | 0.51 | 0.43 | 67 | 1008.0 |
| 20260905003035 | 28 | 312 | 12.9 | 19.3 | 0.00 | 0.51 | 0.43 | 65 | 1007.9 |
| 20260905001536 | 29 | 321 | 12.9 | 16.1 | 0.00 | 0.51 | 0.43 | 64 | 1008.0 |
| 20260905000034 | 29 | 330 | 11.3 | 17.7 | 0.00 | 0.56 | 0.43 | 63 | 1008.1 |
| 20260904234520 | 30 | 334 | 12.9 | 19.3 | 0.00 | 0.56 | 0.43 | 62 | 1007.9 |
| 20260904233016 | 29 | 313 | 11.3 | 17.7 | 0.00 | 0.56 | 0.43 | 64 | 1007.9 |
| 20260904231513 | 29 | 302 | 12.9 | 22.5 | 0.03 | 0.56 | 0.43 | 61 | 1008.0 |
| 20260904230011 | 30 | 324 | 17.7 | 37.0 | 0.03 | 0.66 | 0.43 | 60 | 1008.0 |
| 20260904224559 | 32 | 315 | 24.1 | 32.2 | 0.03 | 0.66 | 0.43 | 56 | 1007.9 |
| 20260904223058 | 32 | 172 | 0.0 | 12.9 | 0.03 | 0.66 | 0.43 | 63 | 1007.8 |
| 20260904221551 | 33 | 145 | 9.7 | 20.9 | 0.00 | 0.64 | 0.41 | 62 | 1007.8 |
| 20260904220107 | 33 | 166 | 11.3 | 24.1 | 0.00 | 0.64 | 0.41 | 59 | 1007.2 |
| 20260904214540 | 33 | 186 | 14.5 | 24.1 | 0.03 | 0.64 | 0.41 | 60 | 1007.3 |
| 20260904213006 | 33 | 154 | 17.7 | 29.0 | 0.03 | 0.64 | 0.41 | 58 | 1007.1 |
| 20260904211501 | 33 | 360 | 12.9 | 22.5 | 0.03 | 0.64 | 0.41 | 60 | 1006.8 |
| 20260904210039 | 33 | 217 | 12.9 | 25.7 | 0.03 | 0.64 | 0.41 | 61 | 1006.9 |
| 20260904204523 | 33 | 212 | 16.1 | 29.0 | 0.00 | 0.61 | 0.38 | 61 | 1006.9 |
| 20260904203024 | 33 | 223 | 17.7 | 25.7 | 0.00 | 0.61 | 0.38 | 61 | 1007.0 |
| 20260904201507 | 33 | 187 | 14.5 | 25.7 | 0.03 | 0.61 | 0.38 | 61 | 1007.2 |
| 20260904200006 | 34 | 207 | 8.0 | 24.1 | 0.03 | 0.61 | 0.38 | 60 | 1007.3 |
| 20260904194613 | 34 | 175 | 9.7 | 24.1 | 0.03 | 0.61 | 0.38 | 62 | 1007.5 |
| 20260904193058 | 34 | 162 | 12.9 | 24.1 | 0.03 | 0.61 | 0.38 | 63 | 1007.6 |
| 20260904191549 | 33 | 175 | 12.9 | 22.5 | 0.00 | 0.61 | 0.36 | 62 | 1008.0 |
| 20260904190048 | 33 | 160 | 14.5 | 20.9 | 0.03 | 0.61 | 0.36 | 62 | 1008.3 |
| 20260904184552 | 33 | 202 | 11.3 | 20.9 | 0.03 | 0.61 | 0.36 | 63 | 1008.6 |
| 20260904183048 | 33 | 360 | 12.9 | 20.9 | 0.03 | 0.61 | 0.36 | 62 | 1008.9 |
| 20260904181538 | 33 | 159 | 9.7 | 19.3 | 0.03 | 0.61 | 0.36 | 62 | 1009.0 |
| 20260904180036 | 33 | 177 | 9.7 | 14.5 | 0.00 | 0.58 | 0.33 | 62 | 1009.2 |
| 20260904174536 | 32 | 169 | 6.4 | 20.9 | 0.00 | 0.58 | 0.33 | 64 | 1009.3 |
| 20260904173100 | 32 | 239 | 12.9 | 19.3 | 0.03 | 0.58 | 0.33 | 67 | 1009.4 |
| 20260904171603 | 32 | 360 | 11.3 | 20.9 | 0.03 | 0.58 | 0.33 | 68 | 1009.5 |
| 20260904170057 | 32 | 146 | 9.7 | 16.1 | 0.03 | 0.58 | 0.33 | 69 | 1009.5 |
| 20260904164557 | 32 | 208 | 6.4 | 17.7 | 0.05 | 0.58 | 0.33 | 67 | 1009.4 |
| 20260904163055 | 32 | 207 | 8.0 | 16.1 | 0.03 | 0.56 | 0.33 | 61 | 1009.6 |
| 20260904161606 | 32 | 177 | 8.0 | 14.5 | 0.03 | 0.56 | 0.33 | 64 | 1009.7 |
| 20260904160018 | 31 | 180 | 6.4 | 14.5 | 0.03 | 0.56 | 0.33 | 67 | 1009.9 |
| 20260904154521 | 31 | 269 | 0.0 | 0.0 | 0.00 | 0.53 | 0.30 | 67 | 1009.9 |
| 20260904153008 | 30 | 288 | 0.0 | 0.0 | 0.03 | 0.53 | 0.30 | 71 | 1009.9 |
| 20260904151504 | 30 | 236 | 0.0 | 0.0 | 0.03 | 0.53 | 0.30 | 73 | 1009.9 |
| 20260904150104 | 28 | 272 | 0.0 | 0.0 | 0.03 | 0.53 | 0.30 | 79 | 1009.8 |
| 20260904144605 | 27 | 241 | 0.0 | 0.0 | 0.05 | 0.53 | 0.30 | 87 | 1009.8 |